Regional Weather Roundup
Issued by NWS

Home | Current Version | Previous Version | Text Only | Print | Product List | Glossary On
Versions: 1 2 3 4 5 6 7 8 9 10 11 12 13 14 15 16 17 18 19 20 21 22 23 24 25 26 27 28 29 30 31 32 33 34 35 36 37 38 39 40 41 42 43 44 45 46 47 48 49 50
000
ASUS43 KOAX 110310
RWRNE

WEATHER ROUNDUP FOR NEBRASKA
NATIONAL WEATHER SERVICE OMAHA NE
900 PM CST SUN DEC 10 2017

NOTES: SATELLITE DATA IS BEING USED TO AUGMENT CLOUD COVER ABOVE
       12000 FEET.
       "FAIR" INDICATES FEW OR NO CLOUDS BELOW 12,000 FEET WITH NO
       SIGNIFICANT WEATHER AND/OR OBSTRUCTIONS TO VISIBILITY.


NEZ001>004-019>022-054>056-110400-
NEBRASKA PANHANDLE

CITY           SKY/WX    TMP DP  RH WIND       PRES   REMARKS
SCOTTSBLUFF    CLOUDY    32   9  38 N6        30.27S WCI  26
ALLIANCE       CLOUDY    31  10  41 W14       30.23S WCI  21
CHADRON        CLOUDY    36  13  38 W5        30.21S WCI  32
GORDON         FAIR      45  17  32 W18       30.16S
KIMBALL        CLOUDY    35   5  27 W12       30.30S WCI  27
SIDNEY         CLEAR     40   7  25 W15       30.27S WCI  32
$$

NEZ057>060-069>072-079>082-110400-
SOUTHWEST NEBRASKA

CITY           SKY/WX    TMP DP  RH WIND       PRES   REMARKS
NORTH PLATTE   CLEAR     31  14  49 NW9       30.18F WCI  23
IMPERIAL       CLOUDY    41   4  21 W10       30.23S
LEXINGTON      CLOUDY    30  13  48 NW3       30.16S
MCCOOK         CLOUDY    35  10  35 W13       30.20S WCI  26
OGALLALA       CLEAR     35   7  31 SW3       30.21F
$$

NEZ005>010-023>029-035>040-094-110400-
NORTH CENTRAL NEBRASKA

CITY           SKY/WX    TMP DP  RH WIND       PRES   REMARKS
VALENTINE      CLEAR     35  18  49 W10       30.10F WCI  27
AINSWORTH      PTCLDY    43  19  37 W9        30.10S
BROKEN BOW     CLEAR     45  11  25 W10       30.13F
O`NEILL        PTCLDY    41  20  42 W9        30.06F
ORD            CLEAR     43  13  29 NW8       30.09F
THEDFORD       CLOUDY    41  13  31 W9        30.15F
$$

NEZ041-046>049-061>064-073>077-083>087-110400-
SOUTH CENTRAL NEBRASKA

CITY           SKY/WX    TMP DP  RH WIND       PRES   REMARKS
GRAND ISLAND   CLEAR     41  16  36 W10       30.12S
AURORA         CLEAR     35  14  42 W13       30.11S WCI  26
HASTINGS       CLEAR     40  13  33 W10       30.13F WCI  33
HEBRON         CLEAR     36  15  41 W3        30.12F
HOLDREGE       CLEAR     47  15  26 W9        30.15S
KEARNEY        CLEAR     42  13  30 W7        30.14F
YORK           CLOUDY    36  14  41 W8        30.11S WCI  29
$$

NEZ011>018-030>034-042>045-110400-
NORTHEAST NEBRASKA

CITY           SKY/WX    TMP DP  RH WIND       PRES   REMARKS
NORFOLK        CLOUDY    32  20  61 SW5       30.05F WCI  27
ALBION         CLOUDY    42  16  34 NW5       30.08F
BLAIR          CLOUDY    39  25  56 CALM      30.08S
COLUMBUS       CLOUDY    29  19  66 W3        30.09F
FREMONT        CLOUDY    32  22  65 CALM      30.07F
TEKAMAH        CLOUDY    30  16  56 CALM      30.07F
WAYNE          CLOUDY    29  18  64 SW6       30.05F WCI  23
$$

NEZ050>053-065>068-078-088>093-110400-
SOUTHEAST NEBRASKA

CITY           SKY/WX    TMP DP  RH WIND       PRES   REMARKS
LINCOLN        CLEAR     33  18  53 CALM      30.11F
OMAHA EPPLEY   CLOUDY    29  22  75 NE3       30.09S
BEATRICE       CLEAR     30  17  59 CALM      30.11F
FALLS CITY     CLEAR     38  21  50 CALM      30.11F
NEBRASKA CITY  CLEAR     39  22  51 SW9       30.10F WCI  33
PLATTSMOUTH    CLEAR     43  21  42 W5        30.09S
$$

NEZ044-045-051>053-067-110400-
OMAHA AREA

CITY           SKY/WX    TMP DP  RH WIND       PRES   REMARKS
OMAHA EPPLEY   CLOUDY    29  22  75 NE3       30.09S
BLAIR          CLOUDY    39  25  56 CALM      30.08S
FREMONT        CLOUDY    32  22  65 CALM      30.07F
MILLARD        CLEAR     33  25  72 CALM      30.09F
OFFUTT AFB     CLEAR     27  19  72 CALM      30.08F
PLATTSMOUTH    CLEAR     43  21  42 W5        30.09S
WAHOO          FAIR      32  17  55 CALM      30.08F
$$



USA.gov is the U.S. government's official web portal to all federal, state and local government web resources and services.